| time (UTC) | temp C | wind direction | speed KPH | gust KPH | rain 1hr cm | rain 24hr cm | rain mn cm | humidity % | barometer mb |
| 20260505041512 | 17 | 257 | 4.8 | 4.8 | 0.03 | 0.28 | 0.28 | 98 | 1019.6 |
| 20260505041012 | 17 | 307 | 6.4 | 6.4 | 0.03 | 0.28 | 0.28 | 99 | 1019.6 |
| 20260505040509 | 17 | 169 | 6.4 | 12.9 | 0.00 | 0.28 | 0.28 | 98 | 1019.6 |
| 20260505040032 | 17 | 305 | 11.3 | 25.7 | 0.00 | 0.28 | 0.28 | 97 | 1019.6 |
| 20260505035508 | 17 | 289 | 8.0 | 19.3 | 0.03 | 0.28 | 0.28 | 99 | 1019.3 |
| 20260505035011 | 17 | 263 | 8.0 | 11.3 | 0.03 | 0.28 | 0.28 | 99 | 1019.3 |
| 20260505034512 | 17 | 297 | 6.4 | 11.3 | 0.00 | 0.25 | 0.25 | 99 | 1019.6 |
| 20260505034013 | 17 | 119 | 6.4 | 6.4 | 0.03 | 0.25 | 0.25 | 99 | 1019.6 |
| 20260505033508 | 17 | 139 | 11.3 | 11.3 | 0.03 | 0.25 | 0.25 | 99 | 1020.0 |
| 20260505033022 | 16 | 111 | 4.8 | 9.7 | 0.00 | 0.25 | 0.25 | 99 | 1020.0 |
| 20260505032509 | 16 | 278 | 9.7 | 20.9 | 0.03 | 0.25 | 0.25 | 99 | 1020.0 |
| 20260505032012 | 16 | 211 | 6.4 | 9.7 | 0.03 | 0.25 | 0.25 | 99 | 1020.0 |
| 20260505031512 | 16 | 198 | 8.0 | 8.0 | 0.03 | 0.25 | 0.25 | 99 | 1020.0 |
| 20260505031013 | 16 | 281 | 6.4 | 14.5 | 0.03 | 0.25 | 0.25 | 99 | 1020.0 |
| 20260505030509 | 16 | 180 | 9.7 | 17.7 | 0.03 | 0.25 | 0.25 | 99 | 1020.0 |
| 20260505030031 | 16 | 246 | 1.6 | 6.4 | 0.00 | 0.25 | 0.25 | 99 | 1020.0 |
| 20260505025508 | 16 | 145 | 3.2 | 3.2 | 0.03 | 0.25 | 0.25 | 99 | 1020.0 |
| 20260505025012 | 16 | 236 | 1.6 | 6.4 | 0.03 | 0.25 | 0.25 | 99 | 1020.0 |
| 20260505024512 | 16 | 102 | 3.2 | 3.2 | 0.00 | 0.25 | 0.25 | 99 | 1020.0 |
| 20260505024012 | 16 | 229 | 3.2 | 4.8 | 0.00 | 0.25 | 0.25 | 99 | 1020.0 |
| 20260505023508 | 16 | 331 | 8.0 | 9.7 | 0.00 | 0.25 | 0.25 | 99 | 1020.0 |
| 20260505023021 | 16 | 134 | 4.8 | 4.8 | 0.00 | 0.25 | 0.25 | 99 | 1020.0 |
| 20260505022509 | 16 | 233 | 3.2 | 9.7 | 0.03 | 0.25 | 0.25 | 99 | 1020.0 |
| 20260505022012 | 16 | 28 | 12.9 | 16.1 | 0.03 | 0.25 | 0.25 | 99 | 1020.3 |
| 20260505021512 | 16 | 334 | 6.4 | 14.5 | 0.00 | 0.23 | 0.23 | 99 | 1020.3 |
| 20260505021012 | 16 | 310 | 3.2 | 3.2 | 0.00 | 0.23 | 0.23 | 99 | 1020.7 |
| 20260505020509 | 16 | 171 | 3.2 | 3.2 | 0.00 | 0.23 | 0.23 | 99 | 1020.7 |
| 20260505020030 | 16 | 175 | 6.4 | 9.7 | 0.03 | 0.23 | 0.23 | 99 | 1020.7 |
| 20260505015509 | 16 | 257 | 4.8 | 4.8 | 0.03 | 0.23 | 0.23 | 99 | 1020.7 |
| 20260505015012 | 16 | 171 | 1.6 | 3.2 | 0.00 | 0.23 | 0.23 | 99 | 1020.7 |
| 20260505014512 | 16 | 102 | 4.8 | 4.8 | 0.03 | 0.23 | 0.23 | 99 | 1020.7 |
| 20260505014011 | 16 | 287 | 4.8 | 14.5 | 0.08 | 0.23 | 0.23 | 99 | 1020.7 |
| 20260505013509 | 16 | 227 | 1.6 | 3.2 | 0.08 | 0.23 | 0.23 | 99 | 1020.7 |
| 20260505013022 | 16 | 274 | 11.3 | 11.3 | 0.13 | 0.23 | 0.23 | 99 | 1020.7 |
| 20260505012508 | 16 | 270 | 4.8 | 11.3 | 0.08 | 0.23 | 0.23 | 99 | 1020.7 |
| 20260505012012 | 16 | 274 | 3.2 | 3.2 | 0.00 | 0.20 | 0.20 | 99 | 1021.0 |
| 20260505011512 | 16 | 40 | 3.2 | 4.8 | 0.00 | 0.20 | 0.20 | 99 | 1021.0 |
| 20260505011012 | 16 | 181 | 3.2 | 4.8 | 0.03 | 0.20 | 0.20 | 99 | 1021.0 |
| 20260505010509 | 16 | 170 | 1.6 | 6.4 | 0.08 | 0.20 | 0.20 | 99 | 1021.0 |
| 20260505010030 | 16 | 129 | 6.4 | 14.5 | 0.03 | 0.20 | 0.20 | 99 | 1021.0 |
| 20260505005509 | 16 | 214 | 3.2 | 8.0 | 0.08 | 0.20 | 0.20 | 99 | 1021.0 |
| 20260505005012 | 16 | 215 | 3.2 | 12.9 | 0.08 | 0.20 | 0.20 | 99 | 1021.0 |
| 20260505004512 | 16 | 62 | 9.7 | 14.5 | 0.00 | 0.18 | 0.18 | 99 | 1021.0 |
| 20260505004012 | 16 | 293 | 9.7 | 14.5 | 0.00 | 0.18 | 0.18 | 99 | 1021.0 |
| 20260505003509 | 16 | 158 | 3.2 | 6.4 | 0.00 | 0.18 | 0.18 | 99 | 1021.7 |
| 20260505003022 | 16 | 202 | 1.6 | 4.8 | 0.03 | 0.18 | 0.18 | 99 | 1021.7 |
| 20260505002509 | 16 | 270 | 14.5 | 14.5 | 0.03 | 0.18 | 0.18 | 99 | 1021.7 |
| 20260505002012 | 16 | 266 | 14.5 | 16.1 | 0.03 | 0.18 | 0.18 | 99 | 1021.7 |
| 20260505001512 | 16 | 309 | 3.2 | 3.2 | 0.08 | 0.18 | 0.18 | 99 | 1021.7 |
| 20260505001012 | 16 | 241 | 6.4 | 14.5 | 0.10 | 0.18 | 0.18 | 99 | 1021.7 |
| 20260505000509 | 16 | 288 | 4.8 | 8.0 | 0.08 | 0.15 | 0.15 | 99 | 1021.7 |
| 20260505000035 | 16 | 193 | 4.8 | 22.5 | 0.08 | 0.15 | 0.15 | 99 | 1022.0 |
| 20260504235510 | 16 | 32 | 3.2 | 3.2 | 0.13 | 0.15 | 0.15 | 99 | 1022.0 |
| 20260504235012 | 16 | 167 | 3.2 | 8.0 | 0.15 | 0.15 | 0.15 | 99 | 1022.0 |
| 20260504234512 | 16 | 149 | 12.9 | 17.7 | 0.13 | 0.13 | 0.13 | 99 | 1022.0 |
| 20260504234013 | 16 | 96 | 3.2 | 16.1 | 0.10 | 0.13 | 0.13 | 99 | 1022.0 |
| 20260504233508 | 16 | 122 | 3.2 | 3.2 | 0.08 | 0.10 | 0.10 | 99 | 1022.7 |
| 20260504233023 | 16 | 136 | 3.2 | 4.8 | 0.08 | 0.10 | 0.10 | 99 | 1022.7 |
| 20260504232510 | 16 | 271 | 6.4 | 14.5 | 0.10 | 0.10 | 0.10 | 99 | 1022.7 |
| 20260504232013 | 16 | 66 | 11.3 | 16.1 | 0.10 | 0.08 | 0.08 | 99 | 1022.7 |
| 20260504231511 | 16 | 207 | 4.8 | 11.3 | 0.08 | 0.08 | 0.08 | 99 | 1022.7 |
| 20260504231012 | 16 | 287 | 4.8 | 4.8 | 0.03 | 0.08 | 0.08 | 99 | 1022.7 |
| 20260504230508 | 16 | 224 | 3.2 | 6.4 | 0.03 | 0.08 | 0.08 | 99 | 1022.7 |
| 20260504230033 | 16 | 278 | 4.8 | 8.0 | 0.08 | 0.08 | 0.08 | 98 | 1022.7 |
| 20260504225509 | 16 | 99 | 3.2 | 8.0 | 0.08 | 0.05 | 0.05 | 99 | 1022.7 |
| 20260504225012 | 16 | 90 | 3.2 | 6.4 | 0.08 | 0.05 | 0.05 | 99 | 1022.7 |
| 20260504224512 | 16 | 155 | 3.2 | 4.8 | 0.08 | 0.05 | 0.05 | 99 | 1022.7 |
| 20260504224012 | 16 | 156 | 3.2 | 6.4 | 0.08 | 0.05 | 0.05 | 98 | 1022.7 |
| 20260504223509 | 16 | 269 | 8.0 | 9.7 | 0.08 | 0.03 | 0.03 | 98 | 1023.0 |
| 20260504223023 | 16 | 106 | 3.2 | 6.4 | 0.10 | 0.03 | 0.03 | 98 | 1023.0 |
| 20260504222509 | 16 | 339 | 4.8 | 11.3 | 0.08 | 0.03 | 0.03 | 98 | 1023.0 |
| 20260504222013 | 16 | 344 | 3.2 | 6.4 | 0.08 | 0.03 | 0.03 | 98 | 1023.0 |
| 20260504221512 | 16 | 200 | 9.7 | 11.3 | 0.08 | 0.00 | 0.00 | 98 | 1023.0 |
| 20260504221012 | 16 | 190 | 3.2 | 4.8 | 0.10 | 0.00 | 0.00 | 98 | 1023.0 |
| 20260504220508 | 16 | 221 | 6.4 | 9.7 | 0.13 | 0.00 | 0.00 | 97 | 1023.0 |
| 20260504220032 | 16 | 198 | 4.8 | 9.7 | 0.13 | 0.00 | 0.00 | 97 | 1023.0 |
| 20260504215509 | 16 | 207 | 3.2 | 9.7 | 0.10 | 0.03 | 0.03 | 97 | 1023.0 |
| 20260504215012 | 16 | 210 | 6.4 | 9.7 | 0.08 | 0.03 | 0.03 | 96 | 1023.0 |
| 20260504214512 | 16 | 292 | 3.2 | 3.2 | 0.08 | 0.03 | 0.03 | 96 | 1023.4 |
| 20260504214012 | 16 | 315 | 6.4 | 6.4 | 0.03 | 0.00 | 0.00 | 97 | 1023.4 |
| 20260504213509 | 16 | 279 | 3.2 | 8.0 | 0.00 | 0.00 | 0.00 | 94 | 1023.4 |
| 20260504213022 | 16 | 171 | 1.6 | 3.2 | 0.00 | 0.00 | 0.00 | 93 | 1023.4 |
| 20260504212509 | 16 | 275 | 3.2 | 4.8 | 0.00 | 0.00 | 0.00 | 93 | 1023.4 |
| 20260504212013 | 16 | 162 | 6.4 | 9.7 | 0.03 | 0.00 | 0.00 | 93 | 1023.7 |
| 20260504211513 | 17 | 200 | 4.8 | 6.4 | 0.03 | 0.00 | 0.00 | 93 | 1023.7 |
| 20260504211012 | 17 | 337 | 4.8 | 6.4 | 0.00 | 0.00 | 0.00 | 93 | 1024.4 |
| 20260504210509 | 17 | 234 | 8.0 | 8.0 | 0.00 | 0.00 | 0.00 | 90 | 1024.4 |
| 20260504210030 | 17 | 302 | 6.4 | 12.9 | 0.00 | 0.00 | 0.00 | 90 | 1024.4 |
| 20260504205509 | 17 | 316 | 6.4 | 11.3 | 0.00 | 0.00 | 0.00 | 89 | 1023.7 |
| 20260504205012 | 17 | 284 | 12.9 | 19.3 | 0.00 | 0.00 | 0.00 | 89 | 1023.7 |
| 20260504204512 | 17 | 168 | 3.2 | 4.8 | 0.00 | 0.00 | 0.00 | 89 | 1023.7 |
| 20260504204012 | 17 | 259 | 8.0 | 9.7 | 0.00 | 0.00 | 0.00 | 89 | 1023.7 |
| 20260504203509 | 17 | 168 | 3.2 | 6.4 | 0.00 | 0.00 | 0.00 | 89 | 1023.7 |
| 20260504203021 | 17 | 109 | 6.4 | 12.9 | 0.00 | 0.00 | 0.00 | 89 | 1023.7 |
| 20260504202509 | 17 | 256 | 3.2 | 4.8 | 0.00 | 0.00 | 0.00 | 88 | 1023.7 |
| 20260504202012 | 17 | 287 | 6.4 | 9.7 | 0.00 | 0.00 | 0.00 | 88 | 1023.4 |
| 20260504201512 | 17 | 117 | 6.4 | 9.7 | 0.00 | 0.00 | 0.00 | 88 | 1023.4 |
| 20260504201013 | 17 | 98 | 9.7 | 12.9 | 0.00 | 0.00 | 0.00 | 88 | 1023.4 |
| 20260504200509 | 17 | 31 | 6.4 | 6.4 | 0.00 | 0.00 | 0.00 | 88 | 1023.4 |
| 20260504200030 | 17 | 287 | 3.2 | 6.4 | 0.00 | 0.00 | 0.00 | 89 | 1023.4 |
| 20260504195508 | 17 | 174 | 3.2 | 4.8 | 0.03 | 0.00 | 0.00 | 89 | 1023.7 |
| 20260504195012 | 17 | 177 | 3.2 | 4.8 | 0.03 | 0.00 | 0.00 | 90 | 1023.7 |
| 20260504194512 | 17 | 276 | 14.5 | 27.4 | 0.03 | 0.00 | 0.00 | 89 | 1023.7 |
| 20260504194012 | 17 | 269 | 6.4 | 6.4 | 0.00 | 0.00 | 0.00 | 89 | 1023.7 |
| 20260504193510 | 17 | 161 | 6.4 | 8.0 | 0.00 | 0.00 | 0.00 | 87 | 1023.4 |
| 20260504193024 | 17 | 258 | 6.4 | 9.7 | 0.00 | 0.00 | 0.00 | 84 | 1023.4 |
| 20260504192509 | 17 | 211 | 3.2 | 4.8 | 0.00 | 0.00 | 0.00 | 82 | 1023.4 |
| 20260504192013 | 17 | 226 | 3.2 | 6.4 | 0.00 | 0.00 | 0.00 | 81 | 1023.7 |
| 20260504191512 | 17 | 268 | 6.4 | 16.1 | 0.00 | 0.00 | 0.00 | 82 | 1023.7 |
| 20260504191013 | 17 | 206 | 1.6 | 3.2 | 0.00 | 0.00 | 0.00 | 85 | 1023.7 |
| 20260504190031 | 17 | 354 | 9.7 | 12.9 | 0.00 | 0.00 | 0.00 | 84 | 1023.7 |
| 20260504185509 | 17 | 114 | 1.6 | 3.2 | 0.00 | 0.00 | 0.00 | 85 | 1023.4 |
| 20260504185012 | 17 | 260 | 4.8 | 6.4 | 0.00 | 0.00 | 0.00 | 84 | 1023.4 |
| 20260504184013 | 17 | 194 | 3.2 | 3.2 | 0.00 | 0.00 | 0.00 | 84 | 1023.4 |
| 20260504183508 | 17 | 176 | 3.2 | 4.8 | 0.00 | 0.00 | 0.00 | 85 | 1023.7 |
| 20260504183022 | 17 | 67 | 4.8 | 6.4 | 0.00 | 0.00 | 0.00 | 85 | 1023.7 |
| 20260504182509 | 17 | 180 | 8.0 | 22.5 | 0.00 | 0.00 | 0.00 | 84 | 1023.7 |
| 20260504182013 | 17 | 161 | 3.2 | 4.8 | 0.00 | 0.00 | 0.00 | 85 | 1023.7 |
| 20260504181512 | 17 | 151 | 3.2 | 4.8 | 0.00 | 0.00 | 0.00 | 85 | 1023.7 |
| 20260504181014 | 17 | 274 | 19.3 | 38.6 | 0.00 | 0.00 | 0.00 | 84 | 1023.7 |
| 20260504180031 | 17 | 195 | 8.0 | 14.5 | 0.00 | 0.00 | 0.00 | 82 | 1023.4 |
| 20260504175509 | 17 | 269 | 6.4 | 11.3 | 0.00 | 0.00 | 0.00 | 83 | 1023.4 |
| 20260504175012 | 17 | 90 | 1.6 | 1.6 | 0.00 | 0.00 | 0.00 | 84 | 1023.4 |
| 20260504174512 | 17 | 149 | 4.8 | 8.0 | 0.00 | 0.00 | 0.00 | 85 | 1023.7 |
| 20260504174012 | 17 | 180 | 6.4 | 6.4 | 0.00 | 0.00 | 0.00 | 85 | 1023.7 |
| 20260504173509 | 17 | 233 | 1.6 | 6.4 | 0.00 | 0.00 | 0.00 | 85 | 1023.7 |
| 20260504173021 | 17 | 281 | 6.4 | 6.4 | 0.00 | 0.00 | 0.00 | 85 | 1023.7 |
| 20260504172510 | 17 | 171 | 6.4 | 11.3 | 0.00 | 0.00 | 0.00 | 85 | 1023.7 |
| 20260504172014 | 17 | 115 | 3.2 | 4.8 | 0.00 | 0.00 | 0.00 | 85 | 1023.7 |
| 20260504171512 | 17 | 232 | 1.6 | 1.6 | 0.00 | 0.00 | 0.00 | 85 | 1023.7 |
| 20260504171013 | 17 | 191 | 3.2 | 4.8 | 0.00 | 0.00 | 0.00 | 84 | 1023.7 |
| 20260504170509 | 17 | 276 | 9.7 | 9.7 | 0.00 | 0.00 | 0.00 | 83 | 1023.7 |
| 20260504151014 | 18 | 233 | 6.4 | 9.7 | 0.00 | 0.00 | 0.00 | 73 | 1024.4 |
| 20260504150509 | 18 | 166 | 1.6 | 1.6 | 0.00 | 0.00 | 0.00 | 73 | 1024.4 |
| 20260504141013 | 18 | 165 | 1.6 | 3.2 | 0.00 | 0.00 | 0.00 | 72 | 1025.1 |
| 20260504140509 | 18 | 116 | 6.4 | 9.7 | 0.00 | 0.00 | 0.00 | 71 | 1025.1 |
| 20260504130509 | 17 | 173 | 3.2 | 4.8 | 0.00 | 0.00 | 0.00 | 76 | 1025.4 |
| 20260504110509 | 18 | 156 | 11.3 | 17.7 | 0.00 | 0.00 | 0.00 | 65 | 1025.7 |
| 20260504100508 | 18 | 307 | 9.7 | 14.5 | 0.00 | 0.00 | 0.00 | 66 | 1025.7 |
| 20260504081514 | 17 | 101 | 1.6 | 4.8 | 0.00 | 0.00 | 0.00 | 70 | 1025.7 |
| 20260504081013 | 17 | 164 | 4.8 | 8.0 | 0.00 | 0.00 | 0.00 | 70 | 1025.7 |
| 20260504080509 | 17 | 81 | 8.0 | 14.5 | 0.00 | 0.00 | 0.00 | 70 | 1025.7 |
| 20260504050509 | 17 | 171 | 3.2 | 4.8 | 0.00 | 0.00 | 0.00 | 79 | 1025.1 |